Wind_Speed
3 3 2 2 1 1 0 1 1 1 1 1 2 2 2 2 2 2 3 3 3 4 4 4 4 3 3 3 4 4 5 5 5 5 6 7 7 6 7 7 8 9 8
3 2 2 1 0 0 0 1 1 1 1 1 2 3 2 2 2 3 3 4 4 4 5 4 4 4 4 4 4 5 6 6 6 6 6 7 7 7 8 8 8 8 8
4 3 2 1 1 0 1 1 1 1 2 1 1 1 2 2 3 3 3 4 5 5 4 4 5 5 5 5 5 6 6 7 7 8 8 7 7 7 8 8 8 8 9
6 4 3 3 2 1 1 2 1 1 1 2 2 2 3 3 3 3 4 5 5 5 5 5 5 6 6 6 6 6 7 7 7 7 8 7 8 8 8 8 9 8 9
6 5 4 3 3 2 2 2 2 1 1 2 3 3 3 4 4 4 5 5 6 6 6 7 7 7 7 7 8 7 7 7 7 7 7 8 7 8 8 8 9 9 9
6 5 5 4 4 4 3 3 2 2 2 3 4 4 4 4 5 5 6 6 7 7 7 8 8 8 8 8 9 9 8 8 8 8 8 8 8 8 9 9 9 10 10
5 5 5 5 5 5 5 4 4 3 3 4 4 4 5 5 6 6 6 6 7 7 8 8 8 9 8 8 9 9 9 9 8 8 9 9 9 10 10 10 10 10 11
6 5 5 5 5 5 5 5 4 4 4 5 5 5 6 6 6 6 7 6 6 7 7 8 9 8 8 9 9 8 9 9 9 9 9 10 10 11 11 11 11 11 12
6 5 5 5 5 5 5 5 5 5 5 5 6 6 6 7 7 7 7 8 7 8 8 9 9 9 9 9 9 8 8 9 10 10 10 11 11 12 12 12 12 13 13
5 5 5 5 5 5 5 5 6 6 6 6 7 7 8 8 8 8 8 9 9 10 10 10 10 10 10 10 10 9 10 10 11 11 11 11 12 13 13 13 14 14 14
6 6 6 6 6 6 6 6 7 7 7 8 8 9 9 9 9 10 10 10 11 12 12 12 12 12 11 12 11 11 11 11 11 12 13 13 13 14 14 15 15 15 15
6 6 7 7 7 7 7 8 8 9 9 10 10 10 11 11 11 12 12 12 12 13 13 13 14 13 13 13 13 12 12 12 13 14 14 15 15 15 15 15 16 16 16
7 7 7 8 8 8 8 9 9 10 10 11 12 12 12 13 13 14 14 14 14 15 15 15 15 15 15 15 14 14 14 15 15 15 15 15 16 16 16 16 16 16 17
9 9 9 9 10 10 11 11 11 11 12 13 13 13 13 14 14 14 15 15 16 16 16 16 15 15 15 14 14 15 16 16 17 17 17 17 16 17 17 17 17 17 17
10 10 10 11 12 13 13 14 14 13 14 14 14 14 14 14 15 15 16 16 16 16 16 16 15 15 15 16 16 16 17 17 18 18 18 18 17 17 17 17 18 18 18
10 11 11 12 13 14 14 15 15 15 15 16 16 15 15 15 15 15 16 17 17 17 16 16 16 16 16 16 17 17 18 19 19 18 18 18 18 17 17 17 18 19 20
11 12 12 14 14 15 14 15 15 16 16 16 16 15 15 15 16 16 16 17 17 17 17 16 17 17 17 17 18 18 18 19 18 18 18 18 18 18 18 19 19 18 20
13 13 14 15 16 16 16 16 16 16 16 16 15 15 15 16 16 16 16 17 17 17 17 17 17 18 18 19 19 19 19 19 18 18 19 19 19 19 19 20 20 21 20
14 15 15 16 16 16 16 17 17 17 17 16 16 16 16 16 16 17 17 18 18 17 17 17 18 19 19 20 19 19 19 20 19 19 19 20 20 20 21 21 21 21 22
16 17 17 17 17 17 17 18 18 18 18 17 17 17 17 17 18 18 18 18 18 18 17 17 18 19 19 20 20 20 20 19 19 19 19 20 20 21 21 22 21 21 22
18 19 19 19 19 19 19 19 19 19 19 19 18 18 18 18 19 19 19 18 18 17 18 18 18 18 18 19 20 20 20 20 20 20 21 21 21 22 22 23 23 23 24
20 20 20 20 20 20 20 20 20 20 20 20 20 19 19 19 19 18 18 17 17 17 17 18 18 19 19 20 20 20 20 20 21 21 22 22 22 23 24 24 24 24 24
21 21 21 20 21 21 21 21 21 21 21 21 21 22 21 21 20 19 18 18 18 18 19 20 20 20 20 20 21 21 21 21 22 23 23 23 24 24 25 25 25 25 25
22 23 22 22 22 22 22 22 23 23 22 22 22 22 22 21 20 19 19 19 19 19 20 21 21 20 20 20 21 22 22 23 23 24 24 24 25 25 25 26 26 26 26
25 25 24 24 24 24 24 24 24 24 23 22 22 22 22 22 21 20 20 20 21 21 21 21 21 21 21 21 22 23 24 24 25 25 26 26 26 26 27 27 27 27 28
26 26 26 26 26 26 26 26 26 25 24 23 23 23 22 22 22 22 22 22 22 22 22 22 21 22 22 23 24 24 25 26 26 27 27 27 27 28 28 28 29 29 29
Wind_Direction
78 79 86 103 128 119 274 314 16 337 298 264 232 230 234 248 260 277 284 285 290 289 291 298 312 308 308 310 309 304 300 299 297 285 273 266 267 275 270 268 258 254 254
58 75 78 68 128 148 51 322 297 312 311 278 245 230 239 277 286 280 282 284 286 289 286 292 304 306 308 313 306 298 295 296 291 283 280 273 272 273 274 269 268 261 255
53 65 69 46 37 351 310 341 318 315 297 273 239 234 264 277 280 278 282 285 288 288 287 292 301 306 303 299 298 300 294 293 289 280 276 275 276 273 270 270 267 263 259
59 61 68 60 41 359 328 326 318 341 318 287 281 282 281 271 268 279 287 288 289 286 289 292 298 301 299 292 292 299 299 296 287 278 274 278 277 268 270 270 267 267 265
53 56 62 55 41 26 356 333 317 323 315 309 304 283 283 271 278 287 290 289 285 281 283 286 291 294 295 292 289 292 296 296 284 275 276 279 271 268 264 265 268 268 268
48 55 52 43 28 20 7 357 354 347 323 321 316 298 284 281 289 293 289 287 290 286 281 282 282 287 291 291 288 287 289 288 281 279 279 280 273 276 280 275 274 272 271
41 40 36 27 17 7 359 355 353 338 323 322 319 310 305 298 294 292 289 287 285 281 279 281 287 289 290 291 291 291 288 286 288 290 290 288 283 282 284 280 278 277 274
30 25 18 11 3 358 353 348 339 329 325 317 312 309 311 307 300 296 286 282 286 283 282 286 287 291 292 290 287 289 287 286 288 289 289 290 291 286 283 281 279 277 275
20 16 6 356 350 344 340 335 334 326 322 314 308 307 306 303 300 299 296 288 286 288 289 291 292 292 295 292 288 285 288 289 290 290 289 290 291 287 283 282 277 273 273
0 359 357 347 341 338 337 327 324 318 312 306 306 307 309 306 300 292 289 290 289 288 289 289 290 290 292 291 290 287 285 287 287 290 290 290 289 283 279 278 275 272 270
350 350 348 343 338 336 338 333 325 315 311 309 305 303 303 302 300 293 287 287 286 285 286 287 288 289 290 291 293 287 283 285 287 288 289 289 287 283 278 276 274 272 271
341 341 338 334 328 328 328 324 323 319 317 313 307 304 302 299 296 295 290 287 286 285 286 287 286 287 287 286 286 286 286 286 285 287 288 288 286 284 280 276 273 272 272
340 333 335 331 328 326 322 317 314 313 312 310 305 302 301 301 298 297 295 292 289 287 285 284 285 286 287 286 282 282 283 283 284 284 284 286 285 282 280 277 274 270 270
334 335 333 329 328 326 322 318 312 308 308 305 303 302 301 300 298 297 297 294 290 290 287 284 282 281 283 285 283 282 282 281 281 283 283 285 284 281 279 277 273 272 271
330 329 326 322 322 321 319 316 314 308 308 306 304 303 301 299 299 297 296 294 293 292 292 289 283 279 279 281 284 284 283 282 283 284 285 284 282 281 280 280 276 273 272
324 324 322 321 319 317 316 314 312 308 309 310 306 302 300 298 298 297 296 295 295 293 290 290 285 282 282 282 282 284 285 284 283 284 283 284 282 277 279 280 278 273 271
318 316 315 315 315 315 314 315 314 310 310 311 308 305 302 299 299 299 296 295 294 293 288 285 284 283 283 285 284 283 287 286 282 283 282 281 281 278 277 276 275 275 272
312 311 311 311 310 312 311 311 314 315 312 310 309 308 307 303 301 302 297 293 293 291 287 283 282 282 281 283 284 283 284 285 283 281 280 279 279 279 279 277 275 275 275
309 310 311 311 311 309 309 309 310 314 313 310 308 307 306 304 303 303 302 298 294 291 287 284 283 283 284 282 283 283 283 284 285 283 283 282 280 278 278 277 278 278 276
305 306 307 308 309 309 307 304 304 307 308 308 307 305 304 303 303 302 302 302 297 292 288 287 287 286 285 283 283 285 283 285 285 284 283 284 283 280 279 278 277 277 276
301 300 301 303 305 303 303 303 302 303 303 303 303 302 302 303 303 303 301 301 297 292 290 288 289 289 287 286 286 287 285 284 285 285 285 284 284 282 281 280 276 275 274
300 298 299 298 300 301 302 302 302 302 301 300 300 300 303 304 304 303 301 302 301 294 290 290 292 291 290 288 287 288 287 285 284 284 285 285 284 283 282 281 279 278 277
296 297 299 298 299 300 304 304 301 300 299 299 301 303 304 304 303 303 303 301 300 297 292 290 290 289 286 286 287 287 286 285 284 284 284 285 285 285 285 283 283 281 278
293 295 298 299 297 297 298 299 297 295 297 298 299 300 301 301 302 301 301 301 300 299 296 293 290 287 286 288 289 288 287 286 285 283 283 284 284 284 285 283 284 284 282
293 294 294 295 295 294 295 294 293 292 293 295 296 298 300 300 299 300 301 302 300 299 298 298 294 289 289 290 291 290 288 286 286 286 285 284 284 284 284 284 284 283 281
291 291 292 293 293 292 292 292 290 289 290 293 294 295 297 299 297 297 299 300 298 297 297 296 295 293 291 291 291 290 289 288 287 286 286 285 284 285 285 285 284 282 281
Height
5898 5898 5898 5898 5898 5898 5898 5897 5897 5896 5896 5895 5895 5895 5895 5895 5895 5895 5894 5894 5893 5893 5892 5891 5890 5889 5888 5887 5887 5886 5885 5884 5884 5883 5883 5882 5881 5881 5880 5880 5880 5880 5880
5898 5898 5898 5898 5898 5897 5897 5896 5896 5896 5895 5895 5894 5895 5895 5894 5894 5894 5894 5893 5892 5892 5891 5890 5889 5888 5887 5886 5885 5885 5884 5883 5882 5882 5881 5880 5879 5879 5879 5878 5878 5878 5877
5898 5898 5897 5897 5897 5897 5896 5896 5896 5895 5895 5894 5894 5894 5894 5894 5894 5893 5892 5892 5891 5890 5889 5889 5888 5887 5886 5885 5884 5883 5882 5882 5880 5879 5878 5878 5878 5877 5877 5876 5876 5875 5875
5898 5898 5897 5897 5897 5896 5896 5896 5895 5894 5894 5894 5894 5893 5893 5893 5893 5892 5891 5890 5889 5889 5888 5887 5887 5886 5884 5883 5883 5881 5880 5879 5878 5877 5876 5876 5875 5875 5875 5874 5874 5873 5873
5899 5898 5898 5897 5897 5896 5895 5895 5894 5894 5893 5893 5893 5892 5892 5892 5892 5891 5890 5889 5888 5887 5886 5886 5885 5884 5883 5882 5881 5880 5878 5877 5877 5875 5874 5874 5873 5872 5872 5872 5871 5871 5870
5899 5898 5898 5897 5896 5896 5895 5894 5893 5893 5893 5892 5892 5892 5891 5891 5890 5889 5888 5887 5886 5885 5884 5883 5883 5882 5881 5880 5879 5878 5876 5876 5875 5873 5872 5872 5871 5870 5870 5869 5869 5868 5868
5899 5898 5898 5897 5896 5895 5894 5894 5893 5892 5892 5891 5891 5891 5890 5889 5888 5887 5886 5885 5884 5883 5882 5881 5880 5879 5878 5877 5877 5875 5874 5873 5873 5872 5871 5870 5869 5868 5867 5866 5866 5865 5865
5899 5898 5897 5896 5896 5895 5894 5893 5892 5891 5891 5890 5890 5889 5888 5887 5886 5885 5884 5883 5882 5881 5880 5879 5878 5877 5876 5875 5874 5873 5872 5871 5870 5869 5868 5867 5866 5865 5864 5863 5863 5862 5861
5899 5898 5897 5896 5895 5894 5893 5891 5891 5890 5889 5889 5888 5887 5886 5885 5884 5883 5881 5880 5880 5879 5878 5877 5876 5875 5874 5873 5871 5870 5869 5868 5867 5866 5865 5864 5863 5862 5861 5860 5859 5859 5858
5898 5897 5896 5894 5893 5892 5891 5890 5889 5888 5887 5886 5885 5885 5884 5883 5882 5881 5880 5878 5877 5876 5875 5874 5873 5872 5871 5870 5869 5867 5866 5865 5864 5863 5862 5861 5859 5858 5857 5856 5855 5855 5854
5897 5895 5894 5893 5892 5890 5889 5888 5887 5886 5885 5884 5883 5882 5881 5880 5879 5878 5877 5876 5874 5873 5872 5871 5870 5868 5867 5866 5865 5864 5863 5862 5861 5859 5858 5857 5855 5854 5853 5852 5851 5850 5850
5895 5894 5893 5892 5890 5889 5888 5886 5885 5884 5882 5881 5880 5879 5878 5877 5875 5874 5873 5872 5871 5870 5868 5867 5866 5865 5864 5863 5862 5860 5859 5858 5857 5856 5854 5853 5851 5849 5848 5847 5847 5846 5845
5894 5892 5891 5889 5888 5887 5886 5884 5883 5881 5880 5878 5877 5876 5874 5873 5871 5870 5869 5868 5866 5865 5864 5863 5862 5860 5859 5858 5857 5856 5855 5854 5852 5851 5850 5848 5846 5845 5844 5843 5842 5841 5840
5892 5891 5889 5888 5886 5885 5883 5882 5880 5878 5876 5875 5873 5872 5870 5869 5867 5866 5864 5863 5862 5860 5859 5858 5857 5856 5855 5853 5852 5851 5850 5849 5848 5846 5845 5843 5842 5840 5839 5838 5837 5836 5836
5891 5889 5888 5886 5885 5883 5881 5879 5876 5875 5873 5871 5869 5868 5866 5864 5863 5861 5859 5858 5857 5855 5854 5853 5852 5851 5850 5849 5848 5846 5845 5844 5842 5841 5840 5838 5837 5835 5834 5833 5833 5832 5831
5889 5887 5885 5884 5882 5880 5878 5875 5873 5871 5869 5867 5864 5863 5861 5860 5858 5856 5855 5853 5852 5851 5849 5848 5846 5845 5844 5843 5842 5841 5839 5838 5836 5835 5834 5833 5831 5830 5829 5828 5827 5827 5826
5886 5884 5882 5881 5879 5876 5874 5872 5869 5867 5865 5862 5860 5858 5856 5855 5853 5851 5850 5848 5846 5845 5844 5843 5842 5840 5839 5838 5836 5835 5833 5832 5831 5830 5828 5827 5826 5825 5823 5823 5822 5821 5820
5883 5881 5879 5877 5875 5873 5870 5868 5866 5864 5861 5858 5855 5853 5852 5850 5848 5846 5844 5842 5840 5839 5838 5837 5836 5835 5834 5832 5831 5829 5828 5826 5825 5824 5822 5821 5820 5819 5818 5817 5816 5815 5815
5879 5877 5875 5873 5871 5868 5866 5864 5862 5860 5857 5854 5851 5849 5847 5845 5843 5841 5839 5837 5835 5833 5832 5830 5830 5829 5827 5826 5825 5823 5822 5821 5819 5818 5816 5815 5814 5813 5812 5811 5810 5809 5809
5874 5872 5871 5868 5866 5864 5862 5859 5857 5855 5853 5850 5847 5845 5843 5841 5839 5837 5834 5832 5830 5828 5826 5825 5824 5823 5821 5820 5819 5817 5816 5814 5813 5812 5810 5809 5808 5807 5806 5805 5804 5803 5802
5869 5867 5865 5863 5861 5859 5857 5854 5852 5850 5848 5845 5843 5841 5838 5836 5834 5831 5829 5827 5825 5823 5821 5820 5818 5817 5816 5814 5813 5811 5810 5809 5807 5806 5805 5803 5802 5801 5799 5798 5797 5796 5795
5864 5862 5860 5858 5856 5853 5851 5849 5846 5844 5842 5840 5838 5836 5833 5831 5829 5826 5823 5821 5819 5818 5816 5814 5813 5812 5810 5808 5807 5805 5804 5803 5802 5801 5799 5798 5796 5794 5793 5791 5790 5788 5787
5858 5856 5854 5852 5850 5848 5846 5843 5841 5839 5837 5835 5833 5831 5828 5826 5824 5821 5818 5816 5814 5812 5810 5809 5807 5805 5804 5802 5801 5799 5798 5797 5795 5794 5792 5791 5789 5787 5785 5783 5782 5781 5779
5852 5850 5848 5846 5844 5842 5840 5838 5836 5833 5832 5830 5828 5825 5823 5821 5818 5815 5813 5811 5808 5806 5804 5802 5800 5798 5797 5796 5794 5793 5791 5790 5789 5787 5785 5784 5782 5780 5778 5776 5775 5773 5772
5845 5843 5842 5840 5837 5836 5833 5831 5829 5827 5826 5824 5822 5819 5817 5815 5812 5810 5808 5805 5803 5801 5798 5796 5793 5791 5790 5789 5787 5786 5784 5783 5781 5780 5778 5776 5775 5773 5771 5769 5767 5765 5763
5838 5836 5834 5832 5830 5828 5826 5824 5822 5821 5819 5817 5815 5813 5811 5809 5807 5804 5802 5799 5797 5795 5792 5789 5787 5786 5784 5782 5780 5779 5777 5775 5773 5772 5769 5768 5766 5765 5763 5761 5759 5757 5755